[[{"header":{"parameterUnit":"m.s-1","parameterCategory":1,"la1":30.2991,"la2":30.254,"lo1":-89.0895,"lo2":-89.0444,"dy":0.0017,"dx":0.0017,"nx":28,"ny":28,"refTime":"2024-03-10T03:00:00:Z","depth":0,"parameterNumber":2,"parameterNumberName":"U-component_of_WINDS"},"data":[0,0,0,0,0,0,0,0,0,0,0,0,0,0,0,0,0,0,0,0,0,0,0,0,0,0,0,0,0,0,0,0,0,0,0,0,0,0,0,0,0,0,0,0,0,0,0,0,0,0,0,0,0,0,0,0,0,0,0.7592,0.7592,0,0.7639,0.7639,0.764,0.7667,0.7667,0.7667,0.7667,0.7715,0.7716,0.7718,0,0,0,0,0,0,0,0,0,0,0,0,0,0.7527,0.7528,0.7592,0.7592,0.7593,0.7639,0.7639,0.764,0.7667,0.7667,0.7667,0.7667,0.7715,0.7716,0.7718,0,0,0,0,0,0,0,0,0,0,0,0,0,0.7563,0.7528,0.7592,0.7612,0.7614,0.7638,0.7639,0.764,0.7667,0.7667,0.7667,0.7667,0.7714,0.7716,0.7718,0.7726,0,0,0.7723,0.7724,0,0,0,0,0,0,0,0,0.756,0.7565,0.7608,0.761,0.7613,0.7647,0.7634,0.7669,0.7666,0.7647,0.7667,0.7667,0.7692,0.7696,0.7704,0.7728,0.773,0.7723,0.7725,0.7725,0.7726,0,0,0,0,0,0,0,0.7558,0.7563,0.761,0.7609,0.7612,0.7619,0.7624,0.7641,0.7668,0.7648,0.765,0.7656,0.7694,0.7703,0.7706,0.7731,0.7723,0.7725,0.7726,0.7727,0.7765,0.7765,0,0,0,0,0,0,0.7552,0.7561,0.7609,0.7612,0.7587,0.762,0.7626,0.7636,0.7668,0.7673,0.7655,0.7657,0.77,0.7704,0.7708,0.772,0.7725,0.7727,0.7728,0.7765,0.7765,0.7765,0,0,0,0,0,0,0.7551,0.7556,0.7607,0.7587,0.7594,0.7621,0.7632,0.7637,0.7646,0.7673,0.7678,0.7659,0.77,0.7705,0.7722,0.7722,0.7728,0.7729,0.7765,0.7765,0.7765,0.7744,0,0,0,0,0,0,0.7549,0.7556,0.7558,0.7587,0.7595,0.762,0.7632,0.7638,0.7649,0.7651,0.7678,0.7683,0.77,0.7719,0.7723,0.7725,0.7731,0.7766,0.7765,0.7765,0.7745,0.7744,0.7742,0,0,0,0,0,0.7546,0.7551,0.7558,0.7564,0.7599,0.762,0.7624,0.7644,0.7649,0.7652,0.767,0.7682,0.7721,0.772,0.7726,0.7727,0.7766,0.7765,0.7765,0.7746,0.7744,0.7742,0,0,0,0,0,0,0.7521,0.7555,0.7564,0.7577,0.7595,0.7624,0.7629,0.7641,0.7658,0.7659,0.7683,0.7689,0.7704,0.7717,0.7715,0.7738,0.7745,0.7746,0.7728,0.7727,0.7725,0.7722,0.7732,0,0,0,0,0,0.7518,0.7531,0.756,0.7569,0.7577,0.7602,0.7611,0.7625,0.7645,0.7653,0.7672,0.7691,0.7707,0.7718,0.7735,0.7748,0.7754,0.7752,0.775,0.7749,0.7749,0.7758,0.7758,0.7765,0.7765,0.7765,0,0,0.751,0.7529,0.7536,0.7564,0.758,0.7594,0.7608,0.7622,0.7633,0.7655,0.7672,0.7686,0.7709,0.7724,0.7732,0.7736,0.7749,0.7749,0.7747,0.7749,0.7758,0.7757,0.7757,0.7765,0.7765,0.7765,0,0,0.7502,0.7518,0.7528,0.7544,0.7568,0.7584,0.7586,0.7614,0.7624,0.7642,0.7659,0.7672,0.77,0.7716,0.7728,0.7728,0.774,0.7733,0.7725,0.7734,0.7733,0.7733,0.7733,0.7733,0.7733,0.7733,0.7733,0,0.749,0.7511,0.7532,0.7545,0.7557,0.7578,0.7589,0.7603,0.7631,0.7639,0.7644,0.768,0.7697,0.7716,0.7716,0.7725,0.7729,0.773,0.7731,0.7731,0.7731,0.7732,0.7732,0.7732,0.7732,0.7732,0.7733,0,0.7494,0.7509,0.7514,0.7541,0.7554,0.7566,0.7589,0.7599,0.7612,0.7628,0.7646,0.7667,0.7689,0.7695,0.7707,0.7716,0.7718,0.7727,0.7734,0.7729,0.773,0.7731,0.7731,0.7731,0.7731,0.7732,0,0,0.7472,0.7511,0.7512,0.7525,0.7554,0.7566,0.7579,0.76,0.7609,0.7628,0.764,0.7664,0.7673,0.7686,0.7701,0.7708,0.7708,0.7716,0.7717,0.7714,0.772,0.7713,0.7713,0.7716,0.7716,0.7716,0.7718,0,0.7469,0.7494,0.7513,0.7531,0.7545,0.7566,0.7578,0.7596,0.7612,0.7627,0.7644,0.7661,0.7671,0.7679,0.7687,0.7706,0.7709,0.7706,0.7728,0.7728,0.7722,0.7714,0.7707,0.7708,0.7719,0.7719,0.7719,0,0.7469,0.7487,0.7506,0.7534,0.754,0.755,0.7572,0.7586,0.7609,0.762,0.7635,0.765,0.7666,0.7673,0.7695,0.7692,0.7703,0.7714,0.7714,0.7717,0.7723,0.7717,0.7708,0.7708,0.772,0.772,0.772,0,0.7451,0.7481,0.7496,0.7506,0.7539,0.7546,0.756,0.7582,0.7594,0.7614,0.7622,0.7643,0.7654,0.767,0.7691,0.7694,0.7712,0.772,0.7722,0.7721,0.7724,0.7724,0.7718,0.7731,0.7731,0.7731,0.7731,0,0.7446,0.7456,0.7488,0.7498,0.7511,0.7534,0.7546,0.7562,0.7582,0.7596,0.7615,0.7627,0.7654,0.767,0.7686,0.7703,0.7708,0.7718,0.7722,0.7716,0.7715,0.7723,0.7724,0.7731,0.7731,0.7731,0.7731,0,0.7428,0.745,0.7468,0.7498,0.7505,0.7514,0.754,0.755,0.7567,0.7584,0.7589,0.7616,0.7636,0.7658,0.7685,0.7696,0.7712,0.7718,0.7704,0.7707,0.7708,0.7707,0.7707,0.7708,0.772,0.7719,0.7719,0,0.7423,0.7432,0.7463,0.7473,0.7487,0.7503,0.7516,0.7539,0.7551,0.7578,0.7586,0.7607,0.7625,0.7655,0.7678,0.7699,0.7706,0.7704,0.7709,0.7703,0.7706,0.7705,0.7707,0.7702,0.7702,0.7702,0.7702,0,0.7412,0.7423,0.744,0.7461,0.7476,0.7494,0.7513,0.752,0.7548,0.7561,0.7581,0.7595,0.7623,0.7644,0.7668,0.7683,0.7697,0.77,0.7702,0.7696,0.7688,0.7693,0.7701,0.77,0.77,0.77,0.77,0.77,0.7401,0.741,0.7434,0.7453,0.7469,0.7487,0.7498,0.7517,0.7534,0.7559,0.7572,0.7592,0.7616,0.765,0.7664,0.7681,0.7686,0.7688,0.7689,0.7689,0.7687,0.7685,0.7685,0.7685,0.7686,0.7686,0.7686,0,0.7392,0.7408,0.7425,0.7451,0.7466,0.7478,0.75,0.7512,0.753,0.755,0.7568,0.7592,0.7613,0.7637,0.7659,0.7668,0.7675,0.7673,0.7673,0.7676,0.7682,0.7678,0.7667,0.7667,0.7667,0.7667,0.7667,0.7667,0.7389,0.7405,0.7419,0.7444,0.7461,0.7481,0.7492,0.7509,0.7525,0.7551,0.7569,0.7584,0.7607,0.7631,0.7651,0.7658,0.7665,0.7662,0.767,0.7674,0.7676,0.7677,0.7674,0.7663,0.7663,0.7664,0.7664,0.7664]},{"header":{"parameterUnit":"m.s-1","parameterCategory":1,"la1":30.2991,"la2":30.254,"lo1":-89.0895,"lo2":-89.0444,"dy":0.0017,"dx":0.0017,"nx":28,"ny":28,"refTime":"2024-03-10T03:00:00:Z","depth":0,"parameterNumber":3,"parameterNumberName":"V-component_of_WINDS"},"data":[0,0,0,0,0,0,0,0,0,0,0,0,0,0,0,0,0,0,0,0,0,0,0,0,0,0,0,0,0,0,0,0,0,0,0,0,0,0,0,0,0,0,0,0,0,0,0,0,0,0,0,0,0,0,0,0,0,0,-3.4021,-3.4021,0,-3.4054,-3.4055,-3.4055,-3.4052,-3.4052,-3.4051,-3.4051,-3.4082,-3.4084,-3.4085,0,0,0,0,0,0,0,0,0,0,0,0,0,-3.3954,-3.3955,-3.4021,-3.4021,-3.4022,-3.4054,-3.4055,-3.4055,-3.4052,-3.4052,-3.4051,-3.4051,-3.4082,-3.4084,-3.4085,0,0,0,0,0,0,0,0,0,0,0,0,0,-3.3985,-3.3956,-3.4021,-3.4024,-3.4025,-3.4054,-3.4055,-3.4055,-3.4053,-3.4052,-3.4051,-3.405,-3.4082,-3.4083,-3.4085,-3.4113,0,0,-3.4091,-3.4092,0,0,0,0,0,0,0,0,-3.3983,-3.3987,-3.4023,-3.4024,-3.4025,-3.4049,-3.4043,-3.4074,-3.4053,-3.4042,-3.4051,-3.405,-3.4072,-3.4074,-3.4082,-3.4114,-3.4115,-3.4092,-3.4093,-3.4094,-3.4094,0,0,0,0,0,0,0,-3.3981,-3.3986,-3.4034,-3.4024,-3.4025,-3.4024,-3.4028,-3.4049,-3.406,-3.4043,-3.4043,-3.4047,-3.4072,-3.408,-3.4083,-3.4116,-3.4091,-3.4093,-3.4094,-3.4095,-3.4175,-3.4176,0,0,0,0,0,0,-3.3978,-3.3984,-3.4033,-3.4035,-3.4002,-3.4026,-3.403,-3.4042,-3.406,-3.4062,-3.4048,-3.4047,-3.4077,-3.4081,-3.4084,-3.4119,-3.4094,-3.4095,-3.4097,-3.4174,-3.4175,-3.4176,0,0,0,0,0,0,-3.3977,-3.3983,-3.4032,-3.401,-3.4016,-3.4028,-3.4041,-3.4043,-3.4051,-3.4064,-3.4066,-3.4054,-3.4077,-3.4081,-3.4106,-3.412,-3.4096,-3.4098,-3.4173,-3.4174,-3.4176,-3.4189,0,0,0,0,0,0,-3.3975,-3.3982,-3.3993,-3.401,-3.4017,-3.4054,-3.4042,-3.4044,-3.4055,-3.4054,-3.4071,-3.4072,-3.4077,-3.4103,-3.4108,-3.4123,-3.41,-3.4172,-3.4173,-3.4175,-3.4187,-3.4191,-3.4193,0,0,0,0,0,-3.3973,-3.3994,-3.3993,-3.3999,-3.403,-3.4055,-3.4059,-3.4064,-3.4056,-3.4067,-3.4075,-3.4072,-3.4118,-3.4106,-3.4111,-3.4127,-3.4171,-3.4173,-3.4175,-3.4186,-3.419,-3.4193,0,0,0,0,0,0,-3.3976,-3.3996,-3.3995,-3.4023,-3.4037,-3.4054,-3.4068,-3.4067,-3.4083,-3.4082,-3.4086,-3.409,-3.4116,-3.4123,-3.411,-3.4155,-3.4143,-3.4147,-3.415,-3.4154,-3.4157,-3.4155,-3.4101,0,0,0,0,0,-3.398,-3.3999,-3.4015,-3.4037,-3.4045,-3.4055,-3.4066,-3.4069,-3.4083,-3.4089,-3.4099,-3.4113,-3.4131,-3.4142,-3.4159,-3.4188,-3.4193,-3.4201,-3.4204,-3.4207,-3.421,-3.4228,-3.4233,-3.4183,-3.4183,-3.4183,0,0,-3.3988,-3.4002,-3.4013,-3.4039,-3.405,-3.4069,-3.406,-3.408,-3.4095,-3.4092,-3.4117,-3.4125,-3.4141,-3.4169,-3.4182,-3.4176,-3.4225,-3.4209,-3.4211,-3.4213,-3.4231,-3.4236,-3.424,-3.4184,-3.4184,-3.4184,0,0,-3.4014,-3.4025,-3.4047,-3.4059,-3.4077,-3.4085,-3.409,-3.4107,-3.4113,-3.4139,-3.4138,-3.4155,-3.4185,-3.4197,-3.4207,-3.4241,-3.4239,-3.4246,-3.4262,-3.428,-3.4284,-3.4288,-3.4302,-3.4306,-3.4249,-3.4249,-3.4249,0,-3.4022,-3.4051,-3.4057,-3.4079,-3.4091,-3.4091,-3.4114,-3.4125,-3.4147,-3.4156,-3.4149,-3.4189,-3.4199,-3.4232,-3.424,-3.4247,-3.4255,-3.4244,-3.4283,-3.4287,-3.429,-3.4304,-3.4309,-3.425,-3.425,-3.4249,-3.4249,0,-3.4061,-3.4082,-3.4097,-3.4121,-3.4135,-3.4156,-3.4166,-3.4179,-3.4182,-3.419,-3.4217,-3.423,-3.4251,-3.4258,-3.426,-3.4292,-3.4288,-3.4282,-3.427,-3.4296,-3.4309,-3.4314,-3.4251,-3.4251,-3.425,-3.425,0,0,-3.4088,-3.4118,-3.4123,-3.4136,-3.4157,-3.4173,-3.4195,-3.4217,-3.423,-3.4245,-3.4265,-3.4292,-3.4288,-3.4299,-3.4302,-3.4318,-3.4346,-3.431,-3.4311,-3.4318,-3.4385,-3.439,-3.4396,-3.4345,-3.4346,-3.4347,-3.4384,0,-3.4118,-3.4159,-3.4166,-3.4202,-3.4222,-3.4224,-3.4244,-3.4259,-3.4268,-3.4286,-3.4295,-3.4315,-3.4307,-3.4314,-3.433,-3.434,-3.436,-3.4337,-3.4364,-3.4365,-3.4362,-3.4402,-3.4407,-3.4442,-3.4389,-3.439,-3.439,0,-3.4157,-3.4176,-3.4215,-3.4236,-3.4245,-3.4263,-3.4285,-3.4302,-3.432,-3.4326,-3.434,-3.4342,-3.4366,-3.4353,-3.4387,-3.4371,-3.4383,-3.439,-3.4391,-3.4395,-3.438,-3.4409,-3.4453,-3.4459,-3.4398,-3.4397,-3.4397,0,-3.4176,-3.4211,-3.424,-3.4249,-3.4275,-3.4288,-3.4299,-3.4316,-3.433,-3.4349,-3.4358,-3.4379,-3.4391,-3.4407,-3.4415,-3.4404,-3.445,-3.4436,-3.4455,-3.4455,-3.4465,-3.4465,-3.4514,-3.447,-3.447,-3.447,-3.447,0,-3.4208,-3.4232,-3.4249,-3.4266,-3.4294,-3.4302,-3.4329,-3.434,-3.4356,-3.4376,-3.4378,-3.4396,-3.4405,-3.4425,-3.4431,-3.446,-3.4464,-3.447,-3.4472,-3.4471,-3.4471,-3.4479,-3.4478,-3.4472,-3.4471,-3.4471,-3.4471,0,-3.4234,-3.4246,-3.4277,-3.43,-3.4306,-3.4326,-3.4345,-3.4362,-3.4371,-3.4397,-3.4403,-3.4418,-3.4442,-3.4452,-3.448,-3.4484,-3.4518,-3.4517,-3.4513,-3.4513,-3.4533,-3.4532,-3.459,-3.46,-3.4548,-3.4549,-3.4549,0,-3.4254,-3.4273,-3.4299,-3.4313,-3.4325,-3.4348,-3.4363,-3.4372,-3.4388,-3.4412,-3.4427,-3.4451,-3.4471,-3.451,-3.4523,-3.4545,-3.4546,-3.4565,-3.4549,-3.4549,-3.4549,-3.4548,-3.4551,-3.4568,-3.4569,-3.4569,-3.4569,0,-3.429,-3.4296,-3.4318,-3.4343,-3.4362,-3.4381,-3.44,-3.4412,-3.4424,-3.4442,-3.4467,-3.4483,-3.4514,-3.4539,-3.4563,-3.4574,-3.4575,-3.4574,-3.458,-3.458,-3.4578,-3.4582,-3.4523,-3.4573,-3.4573,-3.4572,-3.4572,-3.4572,-3.4315,-3.4334,-3.4355,-3.4381,-3.4397,-3.4415,-3.4434,-3.4447,-3.4469,-3.4496,-3.45,-3.4528,-3.4548,-3.4581,-3.4593,-3.4615,-3.461,-3.4618,-3.4621,-3.4623,-3.4626,-3.4574,-3.4619,-3.4619,-3.4619,-3.4619,-3.4619,0,-3.4353,-3.4368,-3.4391,-3.442,-3.444,-3.444,-3.4462,-3.4479,-3.4504,-3.4523,-3.4544,-3.4575,-3.46,-3.4616,-3.4641,-3.4656,-3.4657,-3.4662,-3.4662,-3.4665,-3.4627,-3.4621,-3.4661,-3.4661,-3.4661,-3.4661,-3.4661,-3.4661,-3.4376,-3.4407,-3.4416,-3.4457,-3.4471,-3.45,-3.4513,-3.4531,-3.4546,-3.4581,-3.4603,-3.4614,-3.4632,-3.4659,-3.4682,-3.4686,-3.4696,-3.4703,-3.4707,-3.4672,-3.4667,-3.4663,-3.4657,-3.4704,-3.4704,-3.4743,-3.4743,-3.4743]}]]